Date String (YYYY-MM-DD hh:mm:ss) UTC,Instrument flags,absolute air pressure of the measurement (hPa),sample flow rate (lpm),inlet stack bypass flow (lpm),air temperature of the measurement (°C),ambient temperature measured by the external sensor (°C),aerosol sample conditioner tube jacket temperature (°C),OPC LED temperature (°C),internal box temperature (°C),relative humidity of the measurement (%),span deviation,mass concentration of particles derived from Lorenz-Mie calculation of OPC scattering (μg/m³),mass concentration of particles derived from Lorenz-Mie calculation of OPC scattering (μg/m³),mass concentration of particles derived from Lorenz-Mie calculation of OPC scattering (μg/m³)
DateTimeUTC,F1_M11,P_M11,Q1_M11,Q2_M11,T1_M11,T2_M11,T3_M11,T4_M11,T5_M11,U1_M11,ZSPAN_M11,X0_M11,X2_M11,X1_M11
2024-02-23 09:00:00,SystemResetWarning,0832.1,5.01,000.00,019.4,018.8,000.0,027.9,021.1,11.0,0000.0,0002.14,0000.59,0000.51
2024-02-23 09:01:00,SystemResetWarning,0832.0,4.99,000.00,019.4,018.8,000.0,027.9,021.0,11.1,0000.0,0002.16,0000.59,0000.49
2024-02-23 09:02:00,SystemResetWarning,0832.1,4.99,000.00,019.4,018.8,000.0,027.9,021.0,11.4,0000.0,0002.21,0000.60,0000.49
2024-02-23 09:03:00,SystemResetWarning,0832.1,5.00,000.00,019.4,018.7,000.0,027.8,021.0,11.4,0000.0,0002.18,0000.59,0000.48
2024-02-23 09:04:00,SystemResetWarning,0832.1,5.02,000.00,019.4,018.7,000.0,027.8,021.0,11.6,0000.0,0002.17,0000.58,0000.48
2024-02-23 09:05:00,SystemResetWarning,0832.1,5.00,000.00,019.4,018.7,000.0,027.8,021.0,11.6,0000.0,0002.16,0000.58,0000.47
2024-02-23 09:06:00,SystemResetWarning,0832.1,4.99,000.00,019.4,018.7,000.0,027.8,020.9,11.5,0000.0,0002.16,0000.57,0000.47
2024-02-23 09:07:00,SystemResetWarning,0832.1,5.00,000.00,019.3,018.7,000.0,027.8,021.0,11.7,0000.0,0002.14,0000.57,0000.47
2024-02-23 09:08:00,SystemResetWarning,0832.1,5.00,000.00,019.3,018.6,000.0,027.7,020.9,11.7,0000.0,0001.30,0000.57,0000.47
2024-02-23 09:09:00,SystemResetWarning,0832.1,5.00,000.00,019.3,018.6,000.0,027.7,020.9,11.8,0000.0,0000.84,0000.57,0000.46
2024-02-23 09:10:00,SystemResetWarning,0832.1,5.00,000.00,019.3,018.6,000.0,027.7,020.9,11.8,0000.0,0000.79,0000.55,0000.46
2024-02-23 09:11:00,SystemResetWarning,0832.0,5.00,000.00,019.3,018.6,000.0,027.7,020.8,11.7,0000.0,0000.78,0000.54,0000.46
2024-02-23 09:12:00,SystemResetWarning,0832.0,5.00,000.00,019.2,018.6,000.0,027.7,020.9,11.6,0000.0,0000.78,0000.55,0000.47
2024-02-23 09:13:00,SystemResetWarning,0832.0,4.99,000.00,019.2,018.5,000.0,027.7,020.8,11.3,0000.0,0000.74,0000.53,0000.47
2024-02-23 09:14:00,SystemResetWarning,0832.0,5.00,000.00,019.2,018.5,000.0,027.7,020.8,11.4,0000.0,0000.69,0000.52,0000.47
2024-02-23 09:15:00,SystemResetWarning,0832.0,5.00,000.00,019.2,018.5,000.0,027.6,020.8,11.5,0000.0,0000.70,0000.52,0000.48
2024-02-23 09:16:00,SystemResetWarning,0832.0,4.99,000.00,019.2,018.5,000.0,027.6,020.8,11.7,0000.0,0000.71,0000.53,0000.48
2024-02-23 09:17:00,SystemResetWarning,0832.0,5.00,000.00,019.1,018.4,000.0,027.6,020.8,11.6,0000.0,0000.75,0000.55,0000.49
2024-02-23 09:18:00,SystemResetWarning,0832.0,5.00,000.00,019.1,018.4,000.0,027.6,020.7,11.9,0000.0,0000.77,0000.56,0000.49
2024-02-23 09:19:00,SystemResetWarning,0831.9,5.00,000.00,019.1,018.4,000.0,027.5,020.7,11.8,0000.0,0000.84,0000.58,0000.50
2024-02-23 09:20:00,SystemResetWarning,0831.9,5.01,000.00,019.1,018.4,000.0,027.5,020.7,11.3,0000.0,0000.87,0000.60,0000.51
2024-02-23 09:21:00,SystemResetWarning,0831.9,5.01,000.00,019.1,018.4,000.0,027.5,020.7,11.3,0000.0,0000.97,0000.60,0000.51
2024-02-23 09:22:00,SystemResetWarning,0831.9,5.00,000.00,019.1,018.3,000.0,027.5,020.7,11.3,0000.0,0001.02,0000.60,0000.52
2024-02-23 09:23:00,SystemResetWarning,0832.0,5.00,000.00,019.0,018.3,000.0,027.5,020.6,11.2,0000.0,0001.00,0000.60,0000.52
2024-02-23 09:24:00,SystemResetWarning,0832.0,5.00,000.00,019.0,018.3,000.0,027.5,020.6,11.8,0000.0,0000.99,0000.60,0000.52
2024-02-23 09:25:00,SystemResetWarning,0832.0,5.00,000.00,019.0,018.3,000.0,027.4,020.6,11.7,0000.0,0001.02,0000.61,0000.52
2024-02-23 09:26:00,SystemResetWarning,0831.9,5.00,000.00,019.0,018.3,000.0,027.4,020.6,11.6,0000.0,0001.09,0000.62,0000.52
2024-02-23 09:27:00,SystemResetWarning,0831.9,5.00,000.00,019.0,018.3,000.0,027.4,020.6,11.0,0000.0,0001.10,0000.61,0000.52
2024-02-23 09:28:00,SystemResetWarning,0832.0,5.00,000.00,019.0,018.3,000.0,027.4,020.5,11.0,0000.0,0001.07,0000.60,0000.52
2024-02-23 09:29:00,SystemResetWarning,0832.0,4.99,000.00,019.0,018.2,000.0,027.3,020.5,11.9,0000.0,0001.05,0000.59,0000.51
2024-02-23 09:30:00,SystemResetWarning,0832.0,5.00,000.00,018.9,018.2,000.0,027.3,020.5,13.5,0000.0,0001.03,0000.58,0000.50
2024-02-23 09:31:00,SystemResetWarning,0832.0,5.00,000.00,018.9,018.2,000.0,027.3,020.6,13.6,0000.0,0001.04,0000.58,0000.50
2024-02-23 09:32:00,SystemResetWarning,0831.9,4.99,000.00,018.9,018.3,000.0,027.3,020.6,13.2,0000.0,0000.94,0000.56,0000.49
2024-02-23 09:33:00,SystemResetWarning,0831.9,4.99,000.00,018.9,018.3,000.0,027.3,020.6,12.9,0000.0,0000.85,0000.55,0000.49
2024-02-23 09:34:00,SystemResetWarning,0831.9,4.99,000.00,018.9,018.3,000.0,027.3,020.6,13.9,0000.0,0000.85,0000.56,0000.49
2024-02-23 09:35:00,SystemResetWarning,0831.9,5.01,000.00,018.9,018.3,000.0,027.3,020.6,14.1,0000.0,0000.88,0000.57,0000.49
2024-02-23 09:36:00,SystemResetWarning,0832.0,5.01,000.00,018.9,018.3,000.0,027.3,020.6,14.2,0000.0,0000.91,0000.57,0000.48
2024-02-23 09:37:00,SystemResetWarning,0832.0,5.00,000.00,018.9,018.3,000.0,027.3,020.6,14.2,0000.0,0000.96,0000.59,0000.47
2024-02-23 09:38:00,SystemResetWarning,0832.0,4.99,000.00,018.9,018.3,000.0,027.3,020.7,14.2,0000.0,0000.92,0000.59,0000.47
2024-02-23 09:39:00,SystemResetWarning,0832.0,4.99,000.00,018.9,018.3,000.0,027.3,020.7,14.2,0000.0,0000.94,0000.60,0000.48
2024-02-23 09:40:00,SystemResetWarning,0832.0,5.00,000.00,018.9,018.3,000.0,027.3,020.7,14.3,0000.0,0001.27,0000.67,0000.51
2024-02-23 09:41:00,SystemResetWarning,0831.9,5.02,000.00,018.9,018.3,000.0,027.3,020.7,13.7,0000.0,0001.58,0000.75,0000.55
2024-02-23 09:42:00,SystemResetWarning,0832.1,5.00,000.00,018.9,018.3,000.0,027.3,020.7,13.6,0000.0,0001.56,0000.76,0000.56
2024-02-23 09:43:00,SystemResetWarning,0832.1,4.99,000.00,018.9,018.3,000.0,027.3,020.7,14.1,0000.0,0001.56,0000.77,0000.57
2024-02-23 09:44:00,SystemResetWarning,0832.0,4.99,000.00,018.9,018.3,000.0,027.3,020.7,14.1,0000.0,0001.67,0000.82,0000.60
2024-02-23 09:45:00,SystemResetWarning,0832.0,4.99,000.00,018.9,018.3,000.0,027.3,020.7,13.6,0000.0,0002.58,0000.87,0000.64
2024-02-23 09:46:00,SystemResetWarning,0832.0,5.02,000.00,018.9,018.3,000.0,027.3,020.7,13.6,0000.0,0004.02,0000.92,0000.66
2024-02-23 09:47:00,SystemResetWarning,0832.0,5.00,000.00,018.9,018.3,000.0,027.3,020.7,13.7,0000.0,0004.37,0001.02,0000.70
2024-02-23 09:48:00,SystemResetWarning,0832.0,4.98,000.00,018.9,018.4,000.0,027.3,020.7,13.1,0000.0,0004.51,0001.06,0000.74
2024-02-23 09:49:00,SystemResetWarning,0832.0,4.99,000.00,018.9,018.4,000.0,027.3,020.7,13.1,0000.0,0004.60,0001.12,0000.78
2024-02-23 09:50:00,SystemResetWarning,0832.0,5.02,000.00,018.9,018.4,000.0,027.3,020.7,12.7,0000.0,0004.82,0001.19,0000.81
2024-02-23 09:51:00,SystemResetWarning,0832.0,5.00,000.00,018.9,018.4,000.0,027.3,020.7,12.3,0000.0,0006.18,0001.22,0000.81
2024-02-23 09:52:00,SystemResetWarning,0832.0,4.98,000.00,018.9,018.4,000.0,027.3,020.6,11.9,0000.0,0006.30,0001.18,0000.81
2024-02-23 09:53:00,SystemResetWarning,0832.0,5.00,000.00,018.9,018.3,000.0,027.3,020.6,11.7,0000.0,0006.45,0001.24,0000.82
2024-02-23 09:54:00,SystemResetWarning,0831.9,5.01,000.00,018.9,018.4,000.0,027.3,020.6,11.6,0000.0,0006.68,0001.31,0000.85
2024-02-23 09:55:00,SystemResetWarning,0831.9,5.00,000.00,018.9,018.3,000.0,027.3,020.6,11.7,0000.0,0007.93,0001.34,0000.84
2024-02-23 09:56:00,SystemResetWarning,0832.0,4.99,000.00,018.9,018.3,000.0,027.3,020.6,11.7,0000.0,0007.49,0001.34,0000.83
2024-02-23 09:57:00,SystemResetWarning,0832.0,4.99,000.00,018.9,018.3,000.0,027.3,020.6,11.9,0000.0,0006.31,0001.34,0000.83
2024-02-23 09:58:00,SystemResetWarning,0832.0,5.01,000.00,018.9,018.3,000.0,027.3,020.5,11.8,0000.0,0006.10,0001.28,0000.81
2024-02-23 09:59:00,SystemResetWarning,0832.0,5.01,000.00,018.9,018.3,000.0,027.3,020.5,11.4,0000.0,0005.91,0001.23,0000.80
